Temp
19 17 16 15 14 14 14 13 13 12 12 12 11 11 11 11 11 11 11 12 12 12 11 11 12 12 13 14 15 15 16 16 17 17 17 17 17 17 16 17 18 17 18
16 17 17 16 15 14 13 13 13 12 11 11 11 10 10 10 11 11 11 11 11 11 11 10 10 10 11 12 13 14 15 16 16 16 16 14 16 17 17 18 18 17 18
17 17 17 16 15 14 13 13 12 12 11 11 11 10 10 10 10 10 10 10 10 10 10 10 10 10 11 11 11 12 13 13 15 16 15 13 14 15 18 17 16 16 16
18 17 17 17 15 14 13 12 12 11 11 11 10 9 9 8 8 8 9 9 9 10 10 11 11 10 11 11 11 12 12 13 13 14 15 15 15 14 14 17 17 17 16
15 16 17 16 15 14 13 12 11 11 11 10 10 9 8 8 8 8 8 8 9 10 11 10 10 10 10 10 11 11 11 12 12 12 14 14 15 16 13 14 14 17 18
17 17 17 16 15 14 13 12 11 11 10 9 9 9 8 8 8 8 8 9 10 10 11 11 11 11 11 11 10 10 10 11 11 11 12 13 13 14 13 12 13 14 16
16 15 17 16 16 15 13 12 12 11 10 9 8 8 8 8 8 8 9 9 9 11 10 11 11 11 11 11 10 9 9 10 10 10 10 12 13 14 14 14 13 13 16
15 15 16 16 16 15 13 12 11 10 9 8 8 9 9 9 8 8 8 9 9 10 10 11 11 11 11 11 10 9 9 9 9 10 10 11 12 13 14 14 14 13 13
15 16 17 17 16 15 13 12 11 10 9 8 8 9 9 9 8 9 9 9 9 9 9 10 11 11 11 11 10 10 9 9 10 10 11 11 12 12 13 13 14 13 12
17 15 15 16 15 14 13 11 10 10 9 8 8 9 9 8 9 9 9 8 8 8 8 9 10 10 11 11 11 10 10 10 10 11 11 12 12 12 13 13 14 14 13
15 14 14 15 14 13 12 11 10 10 9 9 9 8 8 9 9 8 8 8 8 7 8 8 8 9 10 10 10 11 11 11 11 12 12 12 12 12 13 14 14 14 14
14 13 14 14 14 13 12 11 11 10 9 9 8 8 8 9 8 7 7 7 7 7 7 8 8 8 8 8 8 9 9 10 10 11 11 12 12 12 13 13 13 13 13
14 13 13 13 13 13 12 12 11 10 9 9 8 8 8 8 7 7 7 7 7 7 7 7 7 7 7 7 7 7 7 8 8 9 9 10 10 10 11 11 11 12 12
13 13 12 13 14 14 13 12 11 10 10 9 8 8 8 8 8 8 7 7 6 6 6 7 7 6 7 6 6 6 6 7 7 7 7 7 8 8 8 8 8 8 9
14 13 12 11 14 13 13 12 11 10 9 9 8 8 8 8 8 8 7 7 6 6 6 7 7 6 6 6 6 5 6 7 7 8 8 8 8 7 7 7 8 8 8
13 13 12 13 13 14 13 12 11 10 10 9 8 8 8 8 8 7 7 7 6 6 6 6 6 5 5 6 6 6 6 6 7 7 7 7 7 7 7 7 6 6 6
13 12 12 12 13 13 13 12 11 10 9 9 9 8 8 8 8 7 7 7 7 6 6 6 6 5 5 4 5 6 6 6 6 6 5 5 5 5 5 5 5 5 4
14 13 13 13 13 13 13 12 11 10 9 9 9 8 8 8 8 7 7 7 7 6 6 6 6 6 5 5 5 6 5 5 5 5 4 4 4 4 4 4 4 4 4
13 13 14 13 13 13 13 12 11 10 9 9 9 9 8 8 8 7 7 7 7 6 6 6 6 6 5 5 5 4 5 5 5 4 3 3 3 2 3 4 4 3 3
14 14 14 13 13 12 12 12 11 10 10 10 10 9 9 8 8 8 7 7 6 6 6 6 6 5 5 5 5 4 4 4 5 4 3 3 3 2 1 3 3 4 3
14 14 13 13 12 12 12 11 11 10 10 10 10 10 9 8 8 8 7 7 6 6 5 5 6 5 6 5 4 4 4 3 4 4 4 3 3 2 1 1 2 2 1
13 13 13 12 12 12 11 11 10 10 10 10 9 9 9 8 8 7 7 6 6 5 5 5 6 6 6 5 5 4 3 3 3 3 3 3 2 2 1 1 1 0 0
12 13 12 12 12 11 11 10 10 10 9 9 9 9 8 8 7 7 6 6 6 5 5 5 6 6 6 6 5 5 4 3 2 3 3 2 2 1 0 0 0 -0 -0
11 12 12 10 10 11 11 11 11 10 9 9 9 9 8 7 7 7 6 6 6 6 6 6 6 6 6 6 5 5 4 2 2 2 2 2 1 0 -0 -0 -0 -0 -1
11 11 11 10 10 10 9 9 9 9 9 8 8 8 8 8 7 7 7 6 6 7 6 6 6 6 6 6 6 5 4 3 3 2 1 0 -0 -0 -0 -0 -1 -1 -1
10 10 10 9 9 9 8 8 7 7 7 7 7 7 7 6 6 6 6 6 6 6 6 6 6 6 6 5 5 5 4 3 2 1 0 -0 0 -0 0 -0 -0 -1 -1
Height
809 814 819 821 822 822 822 822 821 821 820 818 816 814 812 811 809 808 807 806 805 804 802 801 800 799 797 796 795 794 792 790 789 787 783 781 781 780 781 782 781 781 783
809 812 816 818 819 820 821 821 820 819 818 817 815 814 811 809 808 806 805 804 804 802 800 799 797 796 794 793 792 791 788 786 787 785 783 779 775 774 773 773 773 773 773
807 810 813 816 818 819 819 819 819 817 816 814 813 811 809 807 806 805 803 802 801 800 798 796 794 792 791 789 788 787 785 783 782 783 783 779 774 769 766 766 767 769 769
807 809 812 814 816 817 817 817 817 816 814 813 811 810 808 806 804 802 801 799 798 796 795 794 791 789 787 785 784 783 782 781 779 779 777 775 774 773 770 764 765 765 766
807 810 811 813 814 815 815 815 815 814 813 811 810 809 807 805 803 801 799 797 795 794 793 791 789 787 785 783 781 780 779 777 776 776 775 772 770 770 769 768 763 763 764
806 808 810 811 812 812 812 812 813 812 811 809 808 807 806 804 801 799 797 795 793 791 790 788 787 784 781 779 777 775 774 773 773 772 772 770 769 767 766 765 762 761 761
805 807 807 808 809 810 810 810 811 810 808 807 806 805 803 802 799 797 796 793 791 789 788 787 784 781 778 775 773 772 770 769 768 767 766 766 765 765 764 763 762 760 759
805 805 805 806 807 807 808 808 809 807 805 804 803 802 801 799 797 796 794 791 790 788 787 784 781 779 776 773 771 769 766 765 764 762 761 762 761 762 762 761 761 760 759
804 803 803 803 804 805 806 806 805 804 803 802 801 800 798 798 796 794 791 791 790 788 785 782 779 777 774 772 769 766 763 762 760 759 758 757 757 758 758 758 758 757 759
801 802 802 802 802 802 802 803 803 802 801 799 799 796 795 795 793 792 792 791 789 786 783 780 777 775 772 770 767 764 762 760 759 758 756 755 755 754 754 754 754 753 753
800 801 800 799 799 799 800 800 799 800 799 796 795 794 794 793 792 792 791 789 787 784 781 778 776 773 770 768 766 763 761 760 758 756 754 752 752 752 751 751 751 750 750
799 798 797 796 796 796 796 796 796 797 795 794 792 792 792 792 791 790 789 788 785 783 780 777 774 772 770 767 765 763 761 759 757 754 752 751 750 749 749 749 748 748 748
796 795 793 792 791 792 792 792 793 792 791 790 789 789 790 790 790 789 788 786 783 781 778 776 773 771 769 767 765 763 760 758 757 755 753 752 750 749 748 747 747 747 746
791 790 790 788 786 787 787 788 788 788 787 786 786 787 788 788 788 787 785 783 781 779 776 774 772 770 767 765 763 761 759 758 757 755 753 752 751 750 749 748 748 747 746
786 786 785 783 782 782 783 783 783 783 783 783 783 784 785 785 785 784 783 781 779 777 775 773 770 768 765 763 761 759 758 757 755 754 753 752 751 750 749 748 747 747 746
784 782 781 779 778 777 777 778 778 779 779 779 780 780 781 781 781 780 779 777 775 773 772 770 768 766 764 762 760 758 756 755 753 752 751 750 749 748 747 746 745 744 743
780 779 777 776 774 772 773 773 774 775 775 776 775 775 776 776 776 775 774 774 772 771 770 768 767 765 763 760 758 757 755 754 753 751 749 748 748 748 747 745 744 743 742
776 775 774 772 771 769 769 769 770 771 771 770 770 771 771 771 771 770 769 769 767 766 765 764 762 761 759 758 756 754 753 752 751 750 749 747 746 745 745 745 745 744 744
774 772 771 770 768 767 766 765 766 766 766 765 764 765 765 765 766 765 765 764 764 763 762 762 760 759 758 756 755 753 752 752 751 749 748 747 746 745 745 745 745 745 745
773 771 769 767 765 764 763 762 761 761 760 759 759 760 760 760 760 759 759 759 759 759 759 757 756 755 754 753 751 751 750 750 750 749 748 747 746 744 743 743 744 744 744
769 767 765 763 761 761 760 758 757 755 755 755 755 755 755 755 755 755 755 755 755 755 754 753 752 752 751 750 749 748 747 747 747 747 747 745 745 743 742 742 742 743 743
764 762 759 756 755 755 755 753 752 750 751 750 750 750 749 749 749 749 748 749 749 749 748 747 745 745 745 745 745 744 744 743 743 742 742 742 742 742 741 741 741 741 742
759 756 754 752 750 749 748 746 743 745 744 744 743 742 742 742 742 742 742 743 743 742 741 741 739 738 738 738 738 739 738 739 739 740 739 739 739 739 739 740 740 740 740
754 751 749 747 746 746 745 743 741 739 738 737 736 736 736 736 736 736 736 736 737 736 735 734 733 731 732 732 732 733 733 734 734 735 736 736 736 737 737 738 737 737 737
747 746 743 742 741 741 739 737 736 735 733 732 731 731 730 730 729 729 729 729 728 729 728 728 727 727 726 725 727 727 727 727 728 730 730 731 731 731 731 732 733 734 734
742 740 738 737 736 735 733 731 731 730 729 728 726 726 725 725 724 724 723 724 723 723 723 723 722 722 722 721 722 722 722 723 724 724 723 724 725 725 725 726 727 729 730
Wind_Speed
9 10 5 5 5 6 5 6 8 9 10 12 14 14 17 18 18 17 18 20 20 20 20 22 24 24 25 25 25 25 25 25 22 22 22 23 27 30 32 31 30 29 31
8 10 11 7 6 4 6 6 6 8 9 11 12 15 18 19 19 20 19 19 16 15 18 20 20 19 22 23 24 25 25 26 23 21 17 4 9 17 24 29 30 33 34
6 7 8 4 3 6 5 6 7 9 10 12 13 15 17 17 17 17 19 22 20 19 18 18 17 19 20 23 23 24 23 22 20 20 15 3 4 2 14 23 25 24 25
1 2 3 2 3 4 5 5 8 10 11 12 14 14 16 15 18 20 18 18 18 18 19 17 17 17 18 20 23 22 21 21 19 21 23 27 20 3 4 6 7 15 20
7 6 2 2 4 5 4 8 8 10 11 10 13 12 11 13 16 17 17 17 16 14 16 16 15 16 17 19 19 19 20 23 21 20 21 22 22 22 7 7 7 17 15
4 2 4 3 6 7 5 5 8 9 9 10 9 9 11 14 14 16 17 15 15 16 17 16 17 20 19 20 21 21 23 23 23 24 26 22 11 9 8 4 5 8 19
3 4 3 4 4 4 4 5 6 9 10 7 6 7 9 10 13 14 12 14 17 19 20 19 18 18 19 21 20 20 22 23 23 23 25 25 21 19 20 16 5 4 14
4 6 7 5 5 6 5 6 7 8 9 6 7 7 8 10 12 14 15 18 21 22 22 21 19 19 18 19 19 20 20 20 20 20 20 22 19 18 18 18 8 5 3
6 5 5 4 5 4 5 6 7 8 8 8 7 7 8 11 14 16 18 20 20 20 20 20 19 18 17 16 19 18 17 17 17 16 16 16 16 18 20 21 21 9 3
1 4 6 5 2 5 7 7 8 9 10 8 9 9 11 12 13 16 18 19 20 19 19 16 15 17 17 15 15 16 16 15 15 16 16 16 17 18 19 20 21 18 13
2 4 4 6 5 7 9 10 9 9 12 9 9 10 12 14 13 15 16 17 18 16 17 17 16 15 15 14 14 14 13 13 14 15 16 16 15 16 16 14 12 12 13
5 5 6 7 8 11 11 12 12 12 11 9 7 9 10 11 12 14 15 15 15 14 15 16 15 14 14 13 15 15 14 14 16 17 13 8 9 8 10 7 7 6 7
7 6 7 9 11 12 13 14 14 14 12 9 7 8 8 10 11 12 13 14 13 13 13 13 14 15 14 14 13 13 14 13 13 13 14 14 13 12 11 9 8 8 9
8 6 6 10 13 14 16 16 16 16 12 9 8 8 8 10 10 10 11 11 10 11 12 12 11 11 11 10 15 14 13 12 11 11 10 10 10 11 13 13 13 14 15
6 6 7 8 15 14 17 17 18 16 12 11 10 10 10 11 10 10 10 9 9 9 9 10 9 10 8 9 13 12 10 9 10 9 8 9 8 8 9 9 10 10 11
7 8 8 11 14 16 17 19 19 16 13 13 13 11 12 12 11 10 10 10 9 7 9 8 8 8 8 10 10 9 6 6 5 6 6 5 6 7 6 5 6 6 5
8 8 8 9 13 14 16 18 18 14 15 15 14 14 14 15 14 12 12 11 11 10 10 9 8 8 8 10 8 7 6 6 6 5 5 4 6 8 6 4 6 6 6
6 4 6 8 10 11 12 14 13 15 17 17 17 16 16 17 16 14 14 13 12 13 12 12 11 11 10 12 10 7 5 6 5 6 5 4 6 6 4 3 5 5 5
5 8 10 12 12 11 10 14 16 18 19 21 21 20 18 18 18 17 16 15 14 15 14 14 15 14 13 13 13 10 7 7 6 8 7 5 6 5 3 3 4 3 4
12 12 13 14 15 16 14 16 19 20 23 25 24 20 19 21 22 20 18 17 16 17 16 17 17 16 17 15 14 12 9 8 9 8 8 8 8 4 1 1 3 5 5
18 18 18 18 19 18 15 19 21 23 25 24 23 23 23 23 23 21 19 18 18 17 18 19 19 18 17 16 16 14 11 10 10 10 7 10 9 4 2 1 3 4 5
22 23 19 21 21 19 18 20 22 26 23 23 24 24 24 24 23 23 22 21 20 20 21 20 21 19 19 18 17 16 14 11 12 10 10 12 10 4 1 2 1 0 1
22 24 19 20 19 17 17 20 26 24 22 22 24 25 25 24 24 24 25 23 21 22 23 21 21 21 18 17 18 16 16 13 11 10 12 12 10 6 4 2 3 2 3
20 22 17 16 17 17 17 21 23 25 23 21 21 23 23 23 23 25 26 25 23 24 25 24 25 24 21 19 19 18 16 15 13 13 13 12 10 8 7 7 6 5 5
20 20 16 16 19 20 21 21 20 18 19 20 19 21 22 21 22 25 27 28 30 29 27 29 29 26 24 23 19 18 18 17 16 13 13 13 14 13 12 11 10 9 7
21 21 16 16 20 20 20 19 16 14 17 18 18 18 19 21 22 24 26 25 27 28 26 26 27 26 22 21 17 17 18 17 16 18 19 20 19 19 17 16 14 13 11
Wind_Direction
138 133 177 226 259 289 285 308 314 320 316 318 319 316 311 309 308 310 303 299 298 304 305 304 302 299 296 294 287 278 278 277 276 279 279 275 275 268 255 268 262 257 256
143 170 194 200 248 260 288 298 306 310 312 310 306 305 305 304 303 307 312 310 312 310 305 303 303 305 302 297 294 290 291 275 272 270 282 282 275 264 261 257 255 253 252
175 169 163 191 215 255 262 290 304 311 311 315 312 313 307 307 312 315 310 305 306 305 309 316 305 297 293 293 291 292 291 297 284 266 255 291 238 280 258 250 246 248 249
89 35 235 253 235 242 273 297 306 314 321 315 317 315 318 319 314 308 309 310 308 307 304 314 307 300 293 287 286 285 284 287 285 280 266 272 281 287 313 293 287 262 248
185 199 241 247 251 260 270 301 311 317 316 311 314 313 314 312 318 317 310 311 314 314 301 302 300 296 293 291 287 287 288 288 289 286 275 269 277 272 228 275 288 280 259
158 220 274 227 244 250 241 282 308 309 312 314 316 313 312 313 309 309 305 307 308 310 319 316 305 303 306 301 295 293 287 285 286 281 274 274 263 278 272 256 261 258 271
208 246 249 241 218 197 243 282 288 306 307 320 314 310 307 305 306 304 306 309 317 319 311 309 309 308 307 301 301 297 290 286 284 283 270 263 272 282 283 290 291 281 288
273 236 234 242 237 232 233 248 281 295 308 298 292 307 305 311 303 297 317 326 313 309 299 306 309 310 308 307 298 300 295 291 290 288 276 265 265 272 284 281 270 287 300
235 255 278 265 244 211 217 254 280 285 293 284 290 306 310 300 304 324 330 315 304 307 313 309 311 314 315 313 308 305 301 297 293 295 285 275 268 267 267 273 279 267 272
126 325 313 304 246 230 230 251 268 275 284 277 284 303 306 309 321 327 314 311 310 312 315 319 323 323 322 319 314 309 310 300 296 290 285 284 281 276 265 265 269 270 265
239 292 291 288 241 229 239 249 258 265 268 278 293 312 316 326 327 314 307 311 313 317 324 326 327 335 343 344 330 321 311 302 297 296 283 278 282 282 279 283 284 283 283
264 290 265 256 242 226 232 238 252 252 260 275 301 310 318 319 313 307 306 309 313 320 323 330 332 335 333 332 342 339 339 345 338 336 355 340 323 315 298 302 304 318 322
275 287 263 243 232 234 238 238 245 246 254 265 281 299 311 310 311 310 310 309 311 317 323 329 333 335 338 343 337 342 336 321 321 322 328 331 343 350 347 342 332 321 314
249 264 266 254 254 236 233 241 241 247 253 255 270 280 285 290 298 307 310 312 315 322 330 330 327 328 337 335 339 333 327 332 328 329 330 329 332 326 320 319 326 327 324
292 286 267 256 253 250 234 241 242 243 245 249 257 265 274 281 289 294 300 307 315 323 334 335 337 340 343 328 334 335 334 335 332 337 334 332 324 326 321 314 312 310 311
265 264 271 271 261 253 243 238 243 243 243 246 251 260 265 274 277 281 289 294 302 305 313 316 322 327 332 331 337 335 335 332 332 336 330 330 336 325 323 313 317 317 327
267 267 270 286 286 269 252 238 246 241 240 245 252 255 258 265 268 271 278 283 289 293 292 291 296 302 305 315 338 329 330 331 331 326 333 349 338 336 342 309 335 353 13
281 312 311 310 303 273 250 252 243 238 239 245 251 254 254 260 265 265 267 271 274 275 279 281 280 283 289 297 315 313 304 308 320 327 336 342 330 337 1 326 341 349 3
299 280 280 282 284 282 259 236 231 234 240 247 250 253 254 257 259 261 265 270 269 272 273 276 280 284 287 289 301 305 290 296 301 305 309 315 303 333 340 335 324 325 330
292 288 282 278 277 275 262 237 231 232 237 248 252 256 254 254 255 258 260 264 265 270 275 275 275 277 281 284 282 293 272 271 276 281 287 301 324 327 7 238 265 270 285
286 279 276 270 274 278 265 247 246 246 254 260 259 256 257 254 257 262 262 263 265 268 269 273 280 280 279 279 274 279 281 260 270 268 256 276 303 318 5 313 237 242 254
290 286 275 275 268 272 265 256 256 265 270 268 260 255 259 259 258 258 260 257 257 259 263 267 272 270 270 270 269 267 267 252 255 254 258 263 276 285 254 284 266 121 254
288 284 274 278 274 271 256 248 263 272 270 262 257 257 260 261 260 256 257 254 251 250 255 256 262 266 263 263 260 262 258 259 254 245 248 255 257 250 257 298 289 275 270
284 288 279 271 277 277 273 272 279 275 264 262 261 255 254 259 257 253 251 250 248 248 248 252 255 260 261 257 248 255 252 245 245 241 244 248 245 247 255 258 255 260 262
287 287 265 261 272 284 284 287 287 286 272 267 267 264 259 257 260 253 250 249 258 256 251 253 257 260 258 259 258 257 250 244 242 237 235 231 235 238 240 242 244 247 245
288 284 264 266 275 283 286 292 292 284 280 278 272 272 267 267 264 264 264 259 261 267 263 263 264 264 264 270 257 248 247 238 235 217 225 230 238 240 239 237 238 239 235